Home > Weather > Colorado Springs > Past weeks

Flag for U.S.A. Weather for the Past 2 Weeks in Colorado Springs, Colorado, U.S.A.

Now
36 °F

Passing clouds.


Feels Like: 33 °F
Forecast: 30 / 53 °F
Wind: 3 mph from Southwest

Location: City Of Colorado Springs Municipal Airport

Current Time: Feb 12, 2016 at 3:07:12 AM

Latest Report: Feb 12, 2016 at 1:54 AM


Visibility: 10 mi

Pressure: 30.27 "Hg (24.12 "Hg at 1831m altitude)

Humidity: 59%

Dew point: 23 °F

Location of Colorado SpringsLocation

Historic Weather in Colorado Springs — Graph

°F

Colorado Springs Temperature Yesterday

Maximum temperature yesterday: 58 °F (at 1:54 PM)
Minimum temperature yesterday: 26 °F (at 5:54 AM)
Average temperature yesterday: 42 °F

High & Low Weather Summary for the Past Weeks

 TemperatureHumidityPressure
High68 °F (Jan 30, 3:54 PM)93% (Jan 31, 1:54 AM)30.58 "Hg (Jan 31, 1:54 AM)
Low2 °F (Feb 3, 7:54 AM)7% (Feb 10, 11:54 AM)29.37 "Hg (Jan 30, 3:54 PM)
Average31 °F55%30.14 "Hg
* Reported Jan 28 1:54 AM — Feb 12 1:54 AM, Colorado Springs, Weather by CustomWeather, © 2016

Note: Actual official high and low records may vary slightly from our data, if they occured in-between our weather recording intervals... More about our weather records

Advertising

Colorado Springs Weather History for the Previous 24 Hours

 ConditionsComfort  
Time TempWeatherWind HumidityBarometerVisibility
1:54 AM
Fri, Feb 12
36 °FPassing clouds.3 mph59%30.27 "Hg10 mi
12:54 AM37 °FPassing clouds.No wind57%30.29 "Hg10 mi
11:54 PM
Thu, Feb 11
36 °FPassing clouds.9 mph59%30.30 "Hg10 mi
10:54 PM38 °FPassing clouds.3 mph55%30.30 "Hg10 mi
9:54 PM39 °FPassing clouds.3 mph55%30.30 "Hg10 mi
8:54 PM39 °FPassing clouds.5 mph55%30.31 "Hg10 mi
7:54 PM42 °FPassing clouds.6 mph51%30.33 "Hg10 mi
6:54 PM43 °FPassing clouds.20 mph49%30.30 "Hg10 mi
5:54 PM45 °FPassing clouds.14 mph44%30.26 "Hg10 mi
4:54 PM53 °FPartly sunny.10 mph31%30.19 "Hg10 mi
3:54 PM56 °FPartly sunny.6 mph22%30.12 "Hg10 mi
2:54 PM54 °FPartly sunny.8 mph27%30.10 "Hg10 mi
1:54 PM58 °FPartly sunny.3 mph15%30.09 "Hg10 mi
12:54 PM54 °FPartly sunny.No wind22%30.14 "Hg10 mi
11:54 AM53 °FBroken clouds.No wind23%30.15 "Hg10 mi
10:54 AM49 °FBroken clouds.No wind28%30.15 "Hg10 mi
9:54 AM47 °FBroken clouds.No wind26%30.17 "Hg10 mi
8:54 AM43 °FScattered clouds.3 mph34%30.15 "Hg10 mi
7:54 AM32 °FScattered clouds.9 mph56%30.20 "Hg10 mi
6:54 AM29 °FPartly cloudy.12 mph61%30.20 "Hg10 mi
5:54 AM26 °FPassing clouds.9 mph66%30.22 "Hg10 mi
4:54 AM28 °FClear.5 mph58%30.23 "Hg10 mi
3:54 AM34 °FPassing clouds.3 mph44%30.19 "Hg10 mi
Weather by CustomWeather, © 2016

See weather overviewHow to use our weather pages